TimePST,TemperatureF,Dew PointF,Humidity,Sea Level PressureIn,VisibilityMPH,Wind Direction,Wind SpeedMPH,Gust SpeedMPH,PrecipitationIn,Events,Conditions,WindDirDegrees,DateUTC
12:15 AM,26.6,24.8,93,29.88,9.0,Calm,Calm,-,N/A,,Clear,0,2013-02-20 08:15:00
12:35 AM,26.6,24.8,93,29.89,10.0,Calm,Calm,-,N/A,,Clear,0,2013-02-20 08:35:00
12:55 AM,26.6,24.8,93,29.89,9.0,Calm,Calm,-,N/A,,Clear,0,2013-02-20 08:55:00
1:15 AM,24.8,23.0,93,29.90,10.0,Calm,Calm,-,N/A,,Clear,0,2013-02-20 09:15:00
1:35 AM,24.8,23.0,93,29.90,9.0,Calm,Calm,-,N/A,,Clear,0,2013-02-20 09:35:00
1:55 AM,24.8,23.0,93,29.91,9.0,Calm,Calm,-,N/A,,Clear,0,2013-02-20 09:55:00
2:15 AM,24.8,23.0,93,29.91,10.0,Calm,Calm,-,N/A,,Clear,0,2013-02-20 10:15:00
2:35 AM,24.8,23.0,93,29.92,10.0,Calm,Calm,-,N/A,,Clear,0,2013-02-20 10:35:00
3:15 AM,23.0,21.2,93,29.93,10.0,Calm,Calm,-,N/A,,Clear,0,2013-02-20 11:15:00
3:35 AM,23.0,21.2,93,29.93,10.0,Calm,Calm,-,N/A,,Clear,0,2013-02-20 11:35:00
3:55 AM,23.0,21.2,93,29.95,10.0,NE,3.5,-,N/A,,Scattered Clouds,40,2013-02-20 11:55:00
4:15 AM,23.0,21.2,93,29.95,10.0,Calm,Calm,-,N/A,,Mostly Cloudy,0,2013-02-20 12:15:00
4:35 AM,23.0,21.2,93,29.96,10.0,Calm,Calm,-,N/A,,Mostly Cloudy,0,2013-02-20 12:35:00
4:55 AM,23.0,21.2,93,29.96,10.0,North,3.5,-,N/A,,Scattered Clouds,10,2013-02-20 12:55:00
5:15 AM,23.0,21.2,93,29.98,10.0,Calm,Calm,-,N/A,,Mostly Cloudy,0,2013-02-20 13:15:00
6:15 AM,24.8,23.0,93,29.99,10.0,Calm,Calm,-,N/A,,Overcast,0,2013-02-20 14:15:00
12:15 PM,41.0,28.4,61,30.04,10.0,SW,5.8,-,N/A,,Clear,220,2013-02-20 20:15:00
12:35 PM,42.8,26.6,53,30.02,10.0,SSW,4.6,-,N/A,,Clear,210,2013-02-20 20:35:00
12:55 PM,42.8,24.8,49,30.03,10.0,North,5.8,-,N/A,,Clear,360,2013-02-20 20:55:00
1:15 PM,44.6,26.6,49,30.02,10.0,SW,5.8,-,N/A,,Clear,230,2013-02-20 21:15:00
1:35 PM,46.4,26.6,46,30.01,10.0,WNW,4.6,-,N/A,,Clear,300,2013-02-20 21:35:00
1:55 PM,46.4,26.6,46,30.00,10.0,South,4.6,-,N/A,,Clear,190,2013-02-20 21:55:00
2:15 PM,46.4,26.6,46,29.99,10.0,South,6.9,-,N/A,,Clear,190,2013-02-20 22:15:00
2:35 PM,46.4,28.4,50,29.98,10.0,SSW,5.8,-,N/A,,Partly Cloudy,210,2013-02-20 22:35:00
2:55 PM,48.2,28.4,46,29.98,10.0,SW,9.2,-,N/A,,Clear,220,2013-02-20 22:55:00
3:15 PM,48.2,26.6,43,29.97,10.0,Calm,Calm,-,N/A,,Clear,0,2013-02-20 23:15:00
3:35 PM,48.2,26.6,43,29.98,10.0,West,6.9,-,N/A,,Clear,280,2013-02-20 23:35:00
3:55 PM,48.2,26.6,43,29.99,10.0,WSW,6.9,17.3,N/A,,Partly Cloudy,250,2013-02-20 23:55:00
4:15 PM,46.4,26.6,46,29.98,10.0,West,5.8,-,N/A,,Mostly Cloudy,260,2013-02-21 00:15:00
4:35 PM,46.4,26.6,46,29.97,10.0,West,5.8,-,N/A,,Partly Cloudy,270,2013-02-21 00:35:00
4:55 PM,46.4,28.4,50,29.98,10.0,WSW,8.1,-,N/A,,Clear,240,2013-02-21 00:55:00
5:15 PM,44.6,28.4,53,29.98,10.0,West,5.8,-,N/A,,Partly Cloudy,280,2013-02-21 01:15:00
5:35 PM,44.6,28.4,53,29.98,10.0,West,8.1,-,N/A,,Partly Cloudy,280,2013-02-21 01:35:00
5:55 PM,42.8,28.4,57,29.98,10.0,West,6.9,-,N/A,,Clear,270,2013-02-21 01:55:00
6:15 PM,42.8,28.4,57,29.99,10.0,WNW,3.5,-,N/A,,Scattered Clouds,300,2013-02-21 02:15:00
6:35 PM,42.8,26.6,53,29.99,10.0,WSW,3.5,-,N/A,,Mostly Cloudy,240,2013-02-21 02:35:00
6:55 PM,41.0,26.6,57,30.00,10.0,SSW,5.8,-,N/A,,Scattered Clouds,210,2013-02-21 02:55:00
7:15 PM,41.0,28.4,61,30.01,10.0,WSW,6.9,-,N/A,,Clear,250,2013-02-21 03:15:00
7:35 PM,41.0,28.4,61,30.01,10.0,SW,8.1,-,N/A,,Mostly Cloudy,230,2013-02-21 03:35:00
7:55 PM,41.0,28.4,61,30.01,10.0,SW,6.9,-,N/A,,Overcast,230,2013-02-21 03:55:00
8:15 PM,41.0,28.4,61,30.01,10.0,WSW,4.6,-,N/A,,Overcast,240,2013-02-21 04:15:00
8:35 PM,35.6,28.4,75,30.02,10.0,NNE,3.5,-,N/A,,Overcast,30,2013-02-21 04:35:00
8:55 PM,33.8,28.4,81,30.02,10.0,Calm,Calm,-,N/A,,Overcast,0,2013-02-21 04:55:00
9:15 PM,32.0,28.4,87,30.03,10.0,NE,4.6,-,N/A,,Overcast,50,2013-02-21 05:15:00
9:35 PM,32.0,26.6,80,30.02,10.0,North,3.5,-,N/A,,Mostly Cloudy,360,2013-02-21 05:35:00
9:55 PM,32.0,26.6,80,30.03,10.0,Calm,Calm,-,N/A,,Partly Cloudy,0,2013-02-21 05:55:00
10:15 PM,30.2,26.6,86,30.03,10.0,Calm,Calm,-,N/A,,Clear,0,2013-02-21 06:15:00
10:35 PM,28.4,26.6,93,30.03,10.0,North,3.5,-,N/A,,Clear,360,2013-02-21 06:35:00
10:55 PM,28.4,26.6,93,30.03,10.0,Calm,Calm,-,N/A,,Clear,0,2013-02-21 06:55:00
11:15 PM,28.4,26.6,93,30.02,10.0,NE,3.5,-,N/A,,Scattered Clouds,40,2013-02-21 07:15:00
11:35 PM,28.4,26.6,93,30.03,10.0,East,3.5,-,N/A,,Scattered Clouds,100,2013-02-21 07:35:00
11:55 PM,28.4,24.8,86,30.03,10.0,NNE,3.5,-,N/A,,Clear,20,2013-02-21 07:55:00